This demonstration page uses our WeatherBlox Daily Observations layout. Learn more.

Left ArrowRight Arrow

Hourly Observations for November 19, 2019

Temp ( °F °C ) Dew Point ( °F °C ) Humidity (%) Winds ( mph kmh ) Pressure ( in mb ) Visibility ( mi km ) Precip ( " mm )
12:53 am 00:53 Clear 57 13.9 44 6.7 62 62 Calm 29.75 1008 10 16 0.00 0.00
1:53 am 01:53 Clear 54 12.2 44 6.7 69 69 Calm 29.75 1008 10 16 0.00 0.00
2:53 am 02:53 Clear 50 10 42 5.6 74 74 ENE 3 6 29.74 1007 10 16 0.00 0.00
3:53 am 03:53 Clear 50 10 42 5.6 74 74 VRB 6 9 29.74 1007 10 16 0.00 0.00
4:53 am 04:53 Clear 49 9.4 42 5.6 77 77 Calm 29.73 1007 10 16 0.00 0.00
5:53 am 05:53 Clear 49 9.4 42 5.6 77 77 SSE 5 7 29.74 1007 10 16 0.00 0.00
6:53 am 06:53 Clear 46 7.8 40 4.4 79 79 undefined N/A 29.74 1007 10 16 0.00 0.00
7:53 am 07:53 Sunny 52 11.1 41 5 66 66 NW 7 11 29.75 1008 10 16 0.00 0.00
8:53 am 08:53 Sunny 58 14.4 42 5.6 56 56 NNE 6 9 29.75 1008 10 16 0.00 0.00
9:53 am 09:53 Sunny 63 17.2 41 5 45 45 N 3 6 29.75 1007 10 16 0.00 0.00
10:53 am 10:53 Sunny 67 19.4 37 2.8 33 33 NNW 6 9 29.72 1007 10 16 0.00 0.00
11:53 am 11:53 Sunny 70 21.1 36 2.2 29 29 NW 10 17 29.69 1005 10 16 0.00 0.00
12:53 pm 12:53 Sunny 70 21.1 36 2.2 29 29 WNW 12 19 29.65 1004 10 16 0.00 0.00
1:53 pm 13:53 Sunny 71 21.7 36 2.2 28 28 WNW 10 17 29.63 1004 10 16 0.00 0.00
2:53 pm 14:53 Sunny 71 21.7 37 2.8 29 29 NW 9 15 29.61 1003 10 16 0.00 0.00
3:53 pm 15:53 Mostly Sunny 69 20.6 37 2.8 31 31 WNW 9 15 29.59 1002 10 16 0.00 0.00
4:53 pm 16:53 Mostly Cloudy 66 18.9 38 3.3 36 36 NW 8 13 29.58 1002 10 16 0.00 0.00
5:53 pm 17:53 Cloudy 66 18.9 35 1.7 32 32 NNW 7 11 29.60 1003 10 16 0.00 0.00
6:53 pm 18:53 Cloudy 64 17.8 36 2.2 35 35 N 16 26 29.63 1003 10 16 0.00 0.00
7:53 pm 19:53 Mostly Cloudy 62 16.7 35 1.7 37 37 NNW 14 22 29.64 1004 10 16 0.00 0.00
8:53 pm 20:53 Clear 61 16.1 35 1.7 38 38 N 14 22 29.66 1004 10 16 0.00 0.00
9:53 pm 21:53 Clear 60 15.6 35 1.7 39 39 N 14 22 29.67 1005 10 16 0.00 0.00
10:53 pm 22:53 Clear 59 15 35 1.7 41 41 N 12 19 29.68 1005 10 16 0.00 0.00
11:53 pm 23:53 Clear 59 15 35 1.7 41 41 N 12 19 29.68 1005 10 16 0.00 0.00

Powered by AerisWeather